﻿_id,日時,10分間移動積算雨量(mm),1時間移動積算雨量(mm),日雨量(mm),累計雨量(mm)
1,2022-10-10T00:00:00,0,1,28,28
2,2022-10-10T00:01:00,0,1,0,28
3,2022-10-10T00:02:00,0,1,0,28
4,2022-10-10T00:03:00,0,1,0,28
5,2022-10-10T00:04:00,0,1,0,28
6,2022-10-10T00:05:00,0,1,0,28
7,2022-10-10T00:06:00,0,1,0,28
8,2022-10-10T00:07:00,0,1,0,28
9,2022-10-10T00:08:00,0,1,0,28
10,2022-10-10T00:09:00,0,1,0,28
11,2022-10-10T00:10:00,0,1,0,28
12,2022-10-10T00:11:00,0,1,0,28
13,2022-10-10T00:12:00,0,1,0,28
14,2022-10-10T00:13:00,0,1,0,28
15,2022-10-10T00:14:00,0,1,0,28
16,2022-10-10T00:15:00,0,0.5,0,28
17,2022-10-10T00:16:00,0,0.5,0,28
18,2022-10-10T00:17:00,0,0.5,0,28
19,2022-10-10T00:18:00,0,0.5,0,28
20,2022-10-10T00:19:00,0,0.5,0,28
21,2022-10-10T00:20:00,0,0.5,0,28
22,2022-10-10T00:21:00,0,0.5,0,28
23,2022-10-10T00:22:00,0,0.5,0,28
24,2022-10-10T00:23:00,0,0.5,0,28
25,2022-10-10T00:24:00,0,0.5,0,28
26,2022-10-10T00:25:00,0,0.5,0,28
27,2022-10-10T00:26:00,0,0.5,0,28
28,2022-10-10T00:27:00,0,0.5,0,28
29,2022-10-10T00:28:00,0,0.5,0,28
30,2022-10-10T00:29:00,0,0.5,0,28
31,2022-10-10T00:30:00,0,0.5,0,28
32,2022-10-10T00:31:00,0,0.5,0,28
33,2022-10-10T00:32:00,0,0.5,0,28
34,2022-10-10T00:33:00,0,0.5,0,28
35,2022-10-10T00:34:00,0,0.5,0,28
36,2022-10-10T00:35:00,0,0.5,0,28
37,2022-10-10T00:36:00,0,0.5,0,28
38,2022-10-10T00:37:00,0,0.5,0,28
39,2022-10-10T00:38:00,0,0.5,0,28
40,2022-10-10T00:39:00,0,0.5,0,28
41,2022-10-10T00:40:00,0,0,0,28
42,2022-10-10T00:41:00,0,0,0,28
43,2022-10-10T00:42:00,0,0,0,28
44,2022-10-10T00:43:00,0,0,0,28
45,2022-10-10T00:44:00,0,0,0,28
46,2022-10-10T00:45:00,0,0,0,28
47,2022-10-10T00:46:00,0,0,0,28
48,2022-10-10T00:47:00,0,0,0,28
49,2022-10-10T00:48:00,0,0,0,28
50,2022-10-10T00:49:00,0,0,0,28
51,2022-10-10T00:50:00,0,0,0,28
52,2022-10-10T00:51:00,0,0,0,28
53,2022-10-10T00:52:00,0,0,0,28
54,2022-10-10T00:53:00,0,0,0,28
55,2022-10-10T00:54:00,0,0,0,28
56,2022-10-10T00:55:00,0,0,0,28
57,2022-10-10T00:56:00,0,0,0,28
58,2022-10-10T00:57:00,0,0,0,28
59,2022-10-10T00:58:00,0,0,0,28
60,2022-10-10T00:59:00,0,0,0,28
61,2022-10-10T01:00:00,0,0,0,28
62,2022-10-10T01:01:00,0,0,0,28
63,2022-10-10T01:02:00,0,0,0,28
64,2022-10-10T01:03:00,0,0,0,28
65,2022-10-10T01:04:00,0,0,0,28
66,2022-10-10T01:05:00,0,0,0,28
67,2022-10-10T01:06:00,0,0,0,28
68,2022-10-10T01:07:00,0,0,0,28
69,2022-10-10T01:08:00,0,0,0,28
70,2022-10-10T01:09:00,0,0,0,28
71,2022-10-10T01:10:00,0,0,0,28
72,2022-10-10T01:11:00,0,0,0,28
73,2022-10-10T01:12:00,0,0,0,28
74,2022-10-10T01:13:00,0,0,0,28
75,2022-10-10T01:14:00,0,0,0,28
76,2022-10-10T01:15:00,0,0,0,28
77,2022-10-10T01:16:00,0,0,0,28
78,2022-10-10T01:17:00,0,0,0,28
79,2022-10-10T01:18:00,0,0,0,28
80,2022-10-10T01:19:00,0,0,0,28
81,2022-10-10T01:20:00,0,0,0,28
82,2022-10-10T01:21:00,0,0,0,28
83,2022-10-10T01:22:00,0,0,0,28
84,2022-10-10T01:23:00,0,0,0,28
85,2022-10-10T01:24:00,0,0,0,28
86,2022-10-10T01:25:00,0,0,0,28
87,2022-10-10T01:26:00,0,0,0,28
88,2022-10-10T01:27:00,0.5,0.5,0.5,28.5
89,2022-10-10T01:28:00,0.5,0.5,0.5,28.5
90,2022-10-10T01:29:00,0.5,0.5,0.5,28.5
91,2022-10-10T01:30:00,0.5,0.5,0.5,28.5
92,2022-10-10T01:31:00,1,1,1,29
93,2022-10-10T01:32:00,1,1,1,29
94,2022-10-10T01:33:00,1,1,1,29
95,2022-10-10T01:34:00,1,1,1,29
96,2022-10-10T01:35:00,1,1,1,29
97,2022-10-10T01:36:00,1,1,1,29
98,2022-10-10T01:37:00,0.5,1,1,29
99,2022-10-10T01:38:00,0.5,1,1,29
100,2022-10-10T01:39:00,0.5,1,1,29
101,2022-10-10T01:40:00,0.5,1,1,29
102,2022-10-10T01:41:00,0,1,1,29
103,2022-10-10T01:42:00,0,1,1,29
104,2022-10-10T01:43:00,0,1,1,29
105,2022-10-10T01:44:00,0,1,1,29
106,2022-10-10T01:45:00,0,1,1,29
107,2022-10-10T01:46:00,0,1,1,29
108,2022-10-10T01:47:00,0,1,1,29
109,2022-10-10T01:48:00,0,1,1,29
110,2022-10-10T01:49:00,0,1,1,29
111,2022-10-10T01:50:00,0,1,1,29
112,2022-10-10T01:51:00,0,1,1,29
113,2022-10-10T01:52:00,0,1,1,29
114,2022-10-10T01:53:00,0,1,1,29
115,2022-10-10T01:54:00,0,1,1,29
116,2022-10-10T01:55:00,0,1,1,29
117,2022-10-10T01:56:00,0,1,1,29
118,2022-10-10T01:57:00,0.5,1.5,1.5,29.5
119,2022-10-10T01:58:00,0.5,1.5,1.5,29.5
120,2022-10-10T01:59:00,0.5,1.5,1.5,29.5
121,2022-10-10T02:00:00,0.5,1.5,1.5,29.5
122,2022-10-10T02:01:00,0.5,1.5,1.5,29.5
123,2022-10-10T02:02:00,0.5,1.5,1.5,29.5
124,2022-10-10T02:03:00,0.5,1.5,1.5,29.5
125,2022-10-10T02:04:00,0.5,1.5,1.5,29.5
126,2022-10-10T02:05:00,0.5,1.5,1.5,29.5
127,2022-10-10T02:06:00,0.5,1.5,1.5,29.5
128,2022-10-10T02:07:00,0,1.5,1.5,29.5
129,2022-10-10T02:08:00,0,1.5,1.5,29.5
130,2022-10-10T02:09:00,0,1.5,1.5,29.5
131,2022-10-10T02:10:00,0,1.5,1.5,29.5
132,2022-10-10T02:11:00,0,1.5,1.5,29.5
133,2022-10-10T02:12:00,0,1.5,1.5,29.5
134,2022-10-10T02:13:00,0,1.5,1.5,29.5
135,2022-10-10T02:14:00,0,1.5,1.5,29.5
136,2022-10-10T02:15:00,0,1.5,1.5,29.5
137,2022-10-10T02:16:00,0,1.5,1.5,29.5
138,2022-10-10T02:17:00,0,1.5,1.5,29.5
139,2022-10-10T02:18:00,0,1.5,1.5,29.5
140,2022-10-10T02:19:00,0,1.5,1.5,29.5
141,2022-10-10T02:20:00,0,1.5,1.5,29.5
142,2022-10-10T02:21:00,0,1.5,1.5,29.5
143,2022-10-10T02:22:00,0,1.5,1.5,29.5
144,2022-10-10T02:23:00,0.5,2,2,30
145,2022-10-10T02:24:00,0.5,2,2,30
146,2022-10-10T02:25:00,0.5,2,2,30
147,2022-10-10T02:26:00,0.5,2,2,30
148,2022-10-10T02:27:00,0.5,1.5,2,30
149,2022-10-10T02:28:00,0.5,1.5,2,30
150,2022-10-10T02:29:00,0.5,1.5,2,30
151,2022-10-10T02:30:00,0.5,1.5,2,30
152,2022-10-10T02:31:00,0.5,1,2,30
153,2022-10-10T02:32:00,0.5,1,2,30
154,2022-10-10T02:33:00,0,1,2,30
155,2022-10-10T02:34:00,0,1,2,30
156,2022-10-10T02:35:00,0.5,1.5,2.5,30.5
157,2022-10-10T02:36:00,0.5,1.5,2.5,30.5
158,2022-10-10T02:37:00,0.5,1.5,2.5,30.5
159,2022-10-10T02:38:00,0.5,1.5,2.5,30.5
160,2022-10-10T02:39:00,1,2,3,31
161,2022-10-10T02:40:00,1,2,3,31
162,2022-10-10T02:41:00,1,2,3,31
163,2022-10-10T02:42:00,1,2,3,31
164,2022-10-10T02:43:00,1.5,2.5,3.5,31.5
165,2022-10-10T02:44:00,1.5,2.5,3.5,31.5
166,2022-10-10T02:45:00,1,2.5,3.5,31.5
167,2022-10-10T02:46:00,1,2.5,3.5,31.5
168,2022-10-10T02:47:00,1,2.5,3.5,31.5
169,2022-10-10T02:48:00,1,2.5,3.5,31.5
170,2022-10-10T02:49:00,0.5,2.5,3.5,31.5
171,2022-10-10T02:50:00,0.5,2.5,3.5,31.5
172,2022-10-10T02:51:00,0.5,2.5,3.5,31.5
173,2022-10-10T02:52:00,0.5,2.5,3.5,31.5
174,2022-10-10T02:53:00,0,2.5,3.5,31.5
175,2022-10-10T02:54:00,0,2.5,3.5,31.5
176,2022-10-10T02:55:00,0,2.5,3.5,31.5
177,2022-10-10T02:56:00,0,2.5,3.5,31.5
178,2022-10-10T02:57:00,0,2,3.5,31.5
179,2022-10-10T02:58:00,0,2,3.5,31.5
180,2022-10-10T02:59:00,0,2,3.5,31.5
181,2022-10-10T03:00:00,0,2,3.5,31.5
182,2022-10-10T03:01:00,0,2,3.5,31.5
183,2022-10-10T03:02:00,0,2,3.5,31.5
184,2022-10-10T03:03:00,0,2,3.5,31.5
185,2022-10-10T03:04:00,0,2,3.5,31.5
186,2022-10-10T03:05:00,0,2,3.5,31.5
187,2022-10-10T03:06:00,0,2,3.5,31.5
188,2022-10-10T03:07:00,0,2,3.5,31.5
189,2022-10-10T03:08:00,0,2,3.5,31.5
190,2022-10-10T03:09:00,0,2,3.5,31.5
191,2022-10-10T03:10:00,0,2,3.5,31.5
192,2022-10-10T03:11:00,0,2,3.5,31.5
193,2022-10-10T03:12:00,0,2,3.5,31.5
194,2022-10-10T03:13:00,0,2,3.5,31.5
195,2022-10-10T03:14:00,0,2,3.5,31.5
196,2022-10-10T03:15:00,0,2,3.5,31.5
197,2022-10-10T03:16:00,0,2,3.5,31.5
198,2022-10-10T03:17:00,0,2,3.5,31.5
199,2022-10-10T03:18:00,0,2,3.5,31.5
200,2022-10-10T03:19:00,0,2,3.5,31.5
201,2022-10-10T03:20:00,0,2,3.5,31.5
202,2022-10-10T03:21:00,0,2,3.5,31.5
203,2022-10-10T03:22:00,0,2,3.5,31.5
204,2022-10-10T03:23:00,0,1.5,3.5,31.5
205,2022-10-10T03:24:00,0,1.5,3.5,31.5
206,2022-10-10T03:25:00,0,1.5,3.5,31.5
207,2022-10-10T03:26:00,0,1.5,3.5,31.5
208,2022-10-10T03:27:00,0,1.5,3.5,31.5
209,2022-10-10T03:28:00,0,1.5,3.5,31.5
210,2022-10-10T03:29:00,0,1.5,3.5,31.5
211,2022-10-10T03:30:00,0,1.5,3.5,31.5
212,2022-10-10T03:31:00,0,1.5,3.5,31.5
213,2022-10-10T03:32:00,0,1.5,3.5,31.5
214,2022-10-10T03:33:00,0.5,2,4,32
215,2022-10-10T03:34:00,0.5,2,4,32
216,2022-10-10T03:35:00,0.5,1.5,4,32
217,2022-10-10T03:36:00,0.5,1.5,4,32
218,2022-10-10T03:37:00,0.5,1.5,4,32
219,2022-10-10T03:38:00,0.5,1.5,4,32
220,2022-10-10T03:39:00,0.5,1,4,32
221,2022-10-10T03:40:00,0.5,1,4,32
222,2022-10-10T03:41:00,0.5,1,4,32
223,2022-10-10T03:42:00,0.5,1,4,32
224,2022-10-10T03:43:00,0,0.5,4,32
225,2022-10-10T03:44:00,0,0.5,4,32
226,2022-10-10T03:45:00,0,0.5,4,32
227,2022-10-10T03:46:00,0,0.5,4,32
228,2022-10-10T03:47:00,0,0.5,4,32
229,2022-10-10T03:48:00,0,0.5,4,32
230,2022-10-10T03:49:00,0,0.5,4,32
231,2022-10-10T03:50:00,0,0.5,4,32
232,2022-10-10T03:51:00,0,0.5,4,32
233,2022-10-10T03:52:00,0,0.5,4,32
234,2022-10-10T03:53:00,0,0.5,4,32
235,2022-10-10T03:54:00,0,0.5,4,32
236,2022-10-10T03:55:00,0,0.5,4,32
237,2022-10-10T03:56:00,0,0.5,4,32
238,2022-10-10T03:57:00,0,0.5,4,32
239,2022-10-10T03:58:00,0,0.5,4,32
240,2022-10-10T03:59:00,0,0.5,4,32
241,2022-10-10T04:00:00,0,0.5,4,32
242,2022-10-10T04:01:00,0,0.5,4,32
243,2022-10-10T04:02:00,0,0.5,4,32
244,2022-10-10T04:03:00,0,0.5,4,32
245,2022-10-10T04:04:00,0,0.5,4,32
246,2022-10-10T04:05:00,0,0.5,4,32
247,2022-10-10T04:06:00,0,0.5,4,32
248,2022-10-10T04:07:00,0,0.5,4,32
249,2022-10-10T04:08:00,0,0.5,4,32
250,2022-10-10T04:09:00,0,0.5,4,32
251,2022-10-10T04:10:00,0,0.5,4,32
252,2022-10-10T04:11:00,0,0.5,4,32
253,2022-10-10T04:12:00,0,0.5,4,32
254,2022-10-10T04:13:00,0,0.5,4,32
255,2022-10-10T04:14:00,0,0.5,4,32
256,2022-10-10T04:15:00,0,0.5,4,32
257,2022-10-10T04:16:00,0.5,1,4.5,32.5
258,2022-10-10T04:17:00,0.5,1,4.5,32.5
259,2022-10-10T04:18:00,0.5,1,4.5,32.5
260,2022-10-10T04:19:00,0.5,1,4.5,32.5
261,2022-10-10T04:20:00,0.5,1,4.5,32.5
262,2022-10-10T04:21:00,0.5,1,4.5,32.5
263,2022-10-10T04:22:00,0.5,1,4.5,32.5
264,2022-10-10T04:23:00,0.5,1,4.5,32.5
265,2022-10-10T04:24:00,0.5,1,4.5,32.5
266,2022-10-10T04:25:00,0.5,1,4.5,32.5
267,2022-10-10T04:26:00,0,1,4.5,32.5
268,2022-10-10T04:27:00,0,1,4.5,32.5
269,2022-10-10T04:28:00,0,1,4.5,32.5
270,2022-10-10T04:29:00,0,1,4.5,32.5
271,2022-10-10T04:30:00,0,1,4.5,32.5
272,2022-10-10T04:31:00,0,1,4.5,32.5
273,2022-10-10T04:32:00,0,1,4.5,32.5
274,2022-10-10T04:33:00,0,0.5,4.5,32.5
275,2022-10-10T04:34:00,0,0.5,4.5,32.5
276,2022-10-10T04:35:00,0,0.5,4.5,32.5
277,2022-10-10T04:36:00,,,,
278,2022-10-10T04:37:00,0,0.5,4.5,32.5
279,2022-10-10T04:38:00,0,0.5,4.5,32.5
280,2022-10-10T04:39:00,0,0.5,4.5,32.5
281,2022-10-10T04:40:00,0,0.5,4.5,32.5
282,2022-10-10T04:41:00,0.5,1,5,33
283,2022-10-10T04:42:00,0.5,1,5,33
284,2022-10-10T04:43:00,1,1.5,5.5,33.5
285,2022-10-10T04:44:00,1,1.5,5.5,33.5
286,2022-10-10T04:45:00,1,1.5,5.5,33.5
287,2022-10-10T04:46:00,1,1.5,5.5,33.5
288,2022-10-10T04:47:00,1,1.5,5.5,33.5
289,2022-10-10T04:48:00,1.5,2,6,34
290,2022-10-10T04:49:00,1.5,2,6,34
291,2022-10-10T04:50:00,1.5,2,6,34
292,2022-10-10T04:51:00,1,2,6,34
293,2022-10-10T04:52:00,1,2,6,34
294,2022-10-10T04:53:00,0.5,2,6,34
295,2022-10-10T04:54:00,1,2.5,6.5,34.5
296,2022-10-10T04:55:00,,,,
297,2022-10-10T04:56:00,1,2.5,6.5,34.5
298,2022-10-10T04:57:00,1,2.5,6.5,34.5
299,2022-10-10T04:58:00,0.5,2.5,6.5,34.5
300,2022-10-10T04:59:00,1,3,7,35
301,2022-10-10T05:00:00,1,3,7,35
302,2022-10-10T05:01:00,1,3,7,35
303,2022-10-10T05:02:00,1,3,7,35
304,2022-10-10T05:03:00,1,3,7,35
305,2022-10-10T05:04:00,0.5,3,7,35
306,2022-10-10T05:05:00,0.5,3,7,35
307,2022-10-10T05:06:00,0.5,3,7,35
308,2022-10-10T05:07:00,0.5,3,7,35
309,2022-10-10T05:08:00,0.5,3,7,35
310,2022-10-10T05:09:00,0,3,7,35
311,2022-10-10T05:10:00,0,3,7,35
312,2022-10-10T05:11:00,0,3,7,35
313,2022-10-10T05:12:00,0,3,7,35
314,2022-10-10T05:13:00,0,3,7,35
315,2022-10-10T05:14:00,0.5,3.5,7.5,35.5
316,2022-10-10T05:15:00,0.5,3.5,7.5,35.5
317,2022-10-10T05:16:00,0.5,3,7.5,35.5
318,2022-10-10T05:17:00,1,3.5,8,36
319,2022-10-10T05:18:00,1.5,4,8.5,36.5
320,2022-10-10T05:19:00,1.5,4,8.5,36.5
321,2022-10-10T05:20:00,2,4.5,9,37
322,2022-10-10T05:21:00,2,4.5,9,37
323,2022-10-10T05:22:00,2.5,5,9.5,37.5
324,2022-10-10T05:23:00,2.5,5,9.5,37.5
325,2022-10-10T05:24:00,2,5,9.5,37.5
326,2022-10-10T05:25:00,2,5,9.5,37.5
327,2022-10-10T05:26:00,2,5,9.5,37.5
328,2022-10-10T05:27:00,1.5,5,9.5,37.5
329,2022-10-10T05:28:00,1,5,9.5,37.5
330,2022-10-10T05:29:00,1.5,5.5,10,38
331,2022-10-10T05:30:00,1,5.5,10,38
332,2022-10-10T05:31:00,1,5.5,10,38
333,2022-10-10T05:32:00,0.5,5.5,10,38
334,2022-10-10T05:33:00,1,6,10.5,38.5
335,2022-10-10T05:34:00,1.5,6.5,11,39
336,2022-10-10T05:35:00,1.5,6.5,11,39
337,2022-10-10T05:36:00,1.5,6.5,11,39
338,2022-10-10T05:37:00,2,7,11.5,39.5
339,2022-10-10T05:38:00,2,7,11.5,39.5
340,2022-10-10T05:39:00,1.5,7,11.5,39.5
341,2022-10-10T05:40:00,1.5,7,11.5,39.5
342,2022-10-10T05:41:00,1.5,6.5,11.5,39.5
343,2022-10-10T05:42:00,1.5,6.5,11.5,39.5
344,2022-10-10T05:43:00,1,6,11.5,39.5
345,2022-10-10T05:44:00,0.5,6,11.5,39.5
346,2022-10-10T05:45:00,0.5,6,11.5,39.5
347,2022-10-10T05:46:00,0.5,6,11.5,39.5
348,2022-10-10T05:47:00,0,6,11.5,39.5
349,2022-10-10T05:48:00,0,5.5,11.5,39.5
350,2022-10-10T05:49:00,0,5.5,11.5,39.5
351,2022-10-10T05:50:00,0,5.5,11.5,39.5
352,2022-10-10T05:51:00,0,5.5,11.5,39.5
353,2022-10-10T05:52:00,0,5.5,11.5,39.5
354,2022-10-10T05:53:00,0,5.5,11.5,39.5
355,2022-10-10T05:54:00,0,5,11.5,39.5
356,2022-10-10T05:55:00,0,5,11.5,39.5
357,2022-10-10T05:56:00,0,5,11.5,39.5
358,2022-10-10T05:57:00,0,5,11.5,39.5
359,2022-10-10T05:58:00,0,5,11.5,39.5
360,2022-10-10T05:59:00,0,4.5,11.5,39.5
361,2022-10-10T06:00:00,0,4.5,11.5,39.5
362,2022-10-10T06:01:00,0,4.5,11.5,39.5
363,2022-10-10T06:02:00,0,4.5,11.5,39.5
364,2022-10-10T06:03:00,0,4.5,11.5,39.5
365,2022-10-10T06:04:00,0,4.5,11.5,39.5
366,2022-10-10T06:05:00,0,4.5,11.5,39.5
367,2022-10-10T06:06:00,0,4.5,11.5,39.5
368,2022-10-10T06:07:00,0,4.5,11.5,39.5
369,2022-10-10T06:08:00,0,4.5,11.5,39.5
370,2022-10-10T06:09:00,0,4.5,11.5,39.5
371,2022-10-10T06:10:00,0,4.5,11.5,39.5
372,2022-10-10T06:11:00,0,4.5,11.5,39.5
373,2022-10-10T06:12:00,0,4.5,11.5,39.5
374,2022-10-10T06:13:00,0,4.5,11.5,39.5
375,2022-10-10T06:14:00,0,4,11.5,39.5
376,2022-10-10T06:15:00,0,4,11.5,39.5
377,2022-10-10T06:16:00,0,4,11.5,39.5
378,2022-10-10T06:17:00,0,3.5,11.5,39.5
379,2022-10-10T06:18:00,0,3,11.5,39.5
380,2022-10-10T06:19:00,0,3,11.5,39.5
381,2022-10-10T06:20:00,0,2.5,11.5,39.5
382,2022-10-10T06:21:00,0,2.5,11.5,39.5
383,2022-10-10T06:22:00,0,2,11.5,39.5
384,2022-10-10T06:23:00,0,2,11.5,39.5
385,2022-10-10T06:24:00,0,2,11.5,39.5
386,2022-10-10T06:25:00,0,2,11.5,39.5
387,2022-10-10T06:26:00,0,2,11.5,39.5
388,2022-10-10T06:27:00,0,2,11.5,39.5
389,2022-10-10T06:28:00,0,2,11.5,39.5
390,2022-10-10T06:29:00,0,1.5,11.5,39.5
391,2022-10-10T06:30:00,0,1.5,11.5,39.5
392,2022-10-10T06:31:00,0,1.5,11.5,39.5
393,2022-10-10T06:32:00,0,1.5,11.5,39.5
394,2022-10-10T06:33:00,0,1,11.5,39.5
395,2022-10-10T06:34:00,0,0.5,11.5,39.5
396,2022-10-10T06:35:00,0,0.5,11.5,39.5
397,2022-10-10T06:36:00,0,0.5,11.5,39.5
398,2022-10-10T06:37:00,0,0,11.5,39.5
399,2022-10-10T06:38:00,0,0,11.5,39.5
400,2022-10-10T06:39:00,0,0,11.5,39.5
401,2022-10-10T06:40:00,0,0,11.5,39.5
402,2022-10-10T06:41:00,0,0,11.5,39.5
403,2022-10-10T06:42:00,0,0,11.5,39.5
404,2022-10-10T06:43:00,0,0,11.5,39.5
405,2022-10-10T06:44:00,0,0,11.5,39.5
406,2022-10-10T06:45:00,0,0,11.5,39.5
407,2022-10-10T06:46:00,0,0,11.5,39.5
408,2022-10-10T06:47:00,0,0,11.5,39.5
409,2022-10-10T06:48:00,0,0,11.5,39.5
410,2022-10-10T06:49:00,0,0,11.5,39.5
411,2022-10-10T06:50:00,0,0,11.5,39.5
412,2022-10-10T06:51:00,0,0,11.5,39.5
413,2022-10-10T06:52:00,0,0,11.5,39.5
414,2022-10-10T06:53:00,0,0,11.5,39.5
415,2022-10-10T06:54:00,0,0,11.5,39.5
416,2022-10-10T06:55:00,0,0,11.5,39.5
417,2022-10-10T06:56:00,0,0,11.5,39.5
418,2022-10-10T06:57:00,0,0,11.5,39.5
419,2022-10-10T06:58:00,0,0,11.5,39.5
420,2022-10-10T06:59:00,0,0,11.5,39.5
421,2022-10-10T07:00:00,0,0,11.5,39.5
422,2022-10-10T07:01:00,0,0,11.5,39.5
423,2022-10-10T07:02:00,0,0,11.5,39.5
424,2022-10-10T07:03:00,0,0,11.5,39.5
425,2022-10-10T07:04:00,0,0,11.5,39.5
426,2022-10-10T07:05:00,0,0,11.5,39.5
427,2022-10-10T07:06:00,0,0,11.5,39.5
428,2022-10-10T07:07:00,0,0,11.5,39.5
429,2022-10-10T07:08:00,0,0,11.5,39.5
430,2022-10-10T07:09:00,0,0,11.5,39.5
431,2022-10-10T07:10:00,0,0,11.5,39.5
432,2022-10-10T07:11:00,0,0,11.5,39.5
433,2022-10-10T07:12:00,0,0,11.5,39.5
434,2022-10-10T07:13:00,0,0,11.5,39.5
435,2022-10-10T07:14:00,0,0,11.5,39.5
436,2022-10-10T07:15:00,0,0,11.5,39.5
437,2022-10-10T07:16:00,0,0,11.5,39.5
438,2022-10-10T07:17:00,0,0,11.5,39.5
439,2022-10-10T07:18:00,0,0,11.5,39.5
440,2022-10-10T07:19:00,0,0,11.5,39.5
441,2022-10-10T07:20:00,0,0,11.5,39.5
442,2022-10-10T07:21:00,0,0,11.5,39.5
443,2022-10-10T07:22:00,0,0,11.5,39.5
444,2022-10-10T07:23:00,0,0,11.5,39.5
445,2022-10-10T07:24:00,0,0,11.5,39.5
446,2022-10-10T07:25:00,0,0,11.5,39.5
447,2022-10-10T07:26:00,0,0,11.5,39.5
448,2022-10-10T07:27:00,0,0,11.5,39.5
449,2022-10-10T07:28:00,0,0,11.5,39.5
450,2022-10-10T07:29:00,0,0,11.5,39.5
451,2022-10-10T07:30:00,0,0,11.5,39.5
452,2022-10-10T07:31:00,0,0,11.5,39.5
453,2022-10-10T07:32:00,0,0,11.5,39.5
454,2022-10-10T07:33:00,0,0,11.5,39.5
455,2022-10-10T07:34:00,0,0,11.5,39.5
456,2022-10-10T07:35:00,0,0,11.5,39.5
457,2022-10-10T07:36:00,0,0,11.5,39.5
458,2022-10-10T07:37:00,0,0,11.5,39.5
459,2022-10-10T07:38:00,0,0,11.5,39.5
460,2022-10-10T07:39:00,0,0,11.5,39.5
461,2022-10-10T07:40:00,0,0,11.5,39.5
462,2022-10-10T07:41:00,0,0,11.5,39.5
463,2022-10-10T07:42:00,0,0,11.5,39.5
464,2022-10-10T07:43:00,0,0,11.5,39.5
465,2022-10-10T07:44:00,0,0,11.5,39.5
466,2022-10-10T07:45:00,0,0,11.5,39.5
467,2022-10-10T07:46:00,0,0,11.5,39.5
468,2022-10-10T07:47:00,0,0,11.5,39.5
469,2022-10-10T07:48:00,0,0,11.5,39.5
470,2022-10-10T07:49:00,0,0,11.5,39.5
471,2022-10-10T07:50:00,0,0,11.5,39.5
472,2022-10-10T07:51:00,0,0,11.5,39.5
473,2022-10-10T07:52:00,0,0,11.5,39.5
474,2022-10-10T07:53:00,0,0,11.5,39.5
475,2022-10-10T07:54:00,0,0,11.5,39.5
476,2022-10-10T07:55:00,0,0,11.5,39.5
477,2022-10-10T07:56:00,0,0,11.5,39.5
478,2022-10-10T07:57:00,0,0,11.5,39.5
479,2022-10-10T07:58:00,0,0,11.5,39.5
480,2022-10-10T07:59:00,0,0,11.5,39.5
481,2022-10-10T08:00:00,0,0,11.5,39.5
482,2022-10-10T08:01:00,0,0,11.5,39.5
483,2022-10-10T08:02:00,0,0,11.5,39.5
484,2022-10-10T08:03:00,0,0,11.5,39.5
485,2022-10-10T08:04:00,0,0,11.5,39.5
486,2022-10-10T08:05:00,0,0,11.5,39.5
487,2022-10-10T08:06:00,0,0,11.5,39.5
488,2022-10-10T08:07:00,0,0,11.5,39.5
489,2022-10-10T08:08:00,0,0,11.5,39.5
490,2022-10-10T08:09:00,0,0,11.5,39.5
491,2022-10-10T08:10:00,0,0,11.5,39.5
492,2022-10-10T08:11:00,0,0,11.5,39.5
493,2022-10-10T08:12:00,0,0,11.5,39.5
494,2022-10-10T08:13:00,0,0,11.5,39.5
495,2022-10-10T08:14:00,0,0,11.5,39.5
496,2022-10-10T08:15:00,0,0,11.5,39.5
497,2022-10-10T08:16:00,0,0,11.5,39.5
498,2022-10-10T08:17:00,0,0,11.5,39.5
499,2022-10-10T08:18:00,0,0,11.5,39.5
500,2022-10-10T08:19:00,0,0,11.5,39.5
501,2022-10-10T08:20:00,0,0,11.5,39.5
502,2022-10-10T08:21:00,0,0,11.5,39.5
503,2022-10-10T08:22:00,0,0,11.5,39.5
504,2022-10-10T08:23:00,0,0,11.5,39.5
505,2022-10-10T08:24:00,0,0,11.5,39.5
506,2022-10-10T08:25:00,0,0,11.5,39.5
507,2022-10-10T08:26:00,0,0,11.5,39.5
508,2022-10-10T08:27:00,0,0,11.5,39.5
509,2022-10-10T08:28:00,0,0,11.5,39.5
510,2022-10-10T08:29:00,0,0,11.5,39.5
511,2022-10-10T08:30:00,0,0,11.5,39.5
512,2022-10-10T08:31:00,0,0,11.5,39.5
513,2022-10-10T08:32:00,0,0,11.5,39.5
514,2022-10-10T08:33:00,0,0,11.5,39.5
515,2022-10-10T08:34:00,0,0,11.5,39.5
516,2022-10-10T08:35:00,0,0,11.5,39.5
517,2022-10-10T08:36:00,0,0,11.5,39.5
518,2022-10-10T08:37:00,0,0,11.5,39.5
519,2022-10-10T08:38:00,0,0,11.5,39.5
520,2022-10-10T08:39:00,0,0,11.5,39.5
521,2022-10-10T08:40:00,0,0,11.5,39.5
522,2022-10-10T08:41:00,0,0,11.5,39.5
523,2022-10-10T08:42:00,0,0,11.5,39.5
524,2022-10-10T08:43:00,0,0,11.5,39.5
525,2022-10-10T08:44:00,0,0,11.5,39.5
526,2022-10-10T08:45:00,0,0,11.5,39.5
527,2022-10-10T08:46:00,0,0,11.5,39.5
528,2022-10-10T08:47:00,0,0,11.5,39.5
529,2022-10-10T08:48:00,0,0,11.5,39.5
530,2022-10-10T08:49:00,0,0,11.5,39.5
531,2022-10-10T08:50:00,0,0,11.5,39.5
532,2022-10-10T08:51:00,0,0,11.5,39.5
533,2022-10-10T08:52:00,0,0,11.5,39.5
534,2022-10-10T08:53:00,0,0,11.5,39.5
535,2022-10-10T08:54:00,0,0,11.5,39.5
536,2022-10-10T08:55:00,0,0,11.5,39.5
537,2022-10-10T08:56:00,0,0,11.5,39.5
538,2022-10-10T08:57:00,0,0,11.5,39.5
539,2022-10-10T08:58:00,0,0,11.5,39.5
540,2022-10-10T08:59:00,0,0,11.5,39.5
541,2022-10-10T09:00:00,0,0,11.5,39.5
542,2022-10-10T09:01:00,0,0,11.5,39.5
543,2022-10-10T09:02:00,0,0,11.5,39.5
544,2022-10-10T09:03:00,0,0,11.5,39.5
545,2022-10-10T09:04:00,0,0,11.5,39.5
546,2022-10-10T09:05:00,0,0,11.5,39.5
547,2022-10-10T09:06:00,0,0,11.5,39.5
548,2022-10-10T09:07:00,0,0,11.5,39.5
549,2022-10-10T09:08:00,0,0,11.5,39.5
550,2022-10-10T09:09:00,0,0,11.5,39.5
551,2022-10-10T09:10:00,0,0,11.5,39.5
552,2022-10-10T09:11:00,0,0,11.5,39.5
553,2022-10-10T09:12:00,0,0,11.5,39.5
554,2022-10-10T09:13:00,0,0,11.5,39.5
555,2022-10-10T09:14:00,0,0,11.5,39.5
556,2022-10-10T09:15:00,0,0,11.5,39.5
557,2022-10-10T09:16:00,0,0,11.5,39.5
558,2022-10-10T09:17:00,0,0,11.5,39.5
559,2022-10-10T09:18:00,0,0,11.5,39.5
560,2022-10-10T09:19:00,0,0,11.5,39.5
561,2022-10-10T09:20:00,0,0,11.5,39.5
562,2022-10-10T09:21:00,0,0,11.5,39.5
563,2022-10-10T09:22:00,0,0,11.5,39.5
564,2022-10-10T09:23:00,0,0,11.5,39.5
565,2022-10-10T09:24:00,0,0,11.5,39.5
566,2022-10-10T09:25:00,0,0,11.5,39.5
567,2022-10-10T09:26:00,0,0,11.5,39.5
568,2022-10-10T09:27:00,0,0,11.5,39.5
569,2022-10-10T09:28:00,0,0,11.5,39.5
570,2022-10-10T09:29:00,0,0,11.5,39.5
571,2022-10-10T09:30:00,0,0,11.5,39.5
572,2022-10-10T09:31:00,0,0,11.5,39.5
573,2022-10-10T09:32:00,0,0,11.5,39.5
574,2022-10-10T09:33:00,0,0,11.5,39.5
575,2022-10-10T09:34:00,0,0,11.5,39.5
576,2022-10-10T09:35:00,0,0,11.5,39.5
577,2022-10-10T09:36:00,0,0,11.5,39.5
578,2022-10-10T09:37:00,0,0,11.5,39.5
579,2022-10-10T09:38:00,0,0,11.5,39.5
580,2022-10-10T09:39:00,0,0,11.5,39.5
581,2022-10-10T09:40:00,0,0,11.5,39.5
582,2022-10-10T09:41:00,0,0,11.5,39.5
583,2022-10-10T09:42:00,0,0,11.5,39.5
584,2022-10-10T09:43:00,0,0,11.5,39.5
585,2022-10-10T09:44:00,0,0,11.5,39.5
586,2022-10-10T09:45:00,0,0,11.5,39.5
587,2022-10-10T09:46:00,0,0,11.5,39.5
588,2022-10-10T09:47:00,0,0,11.5,39.5
589,2022-10-10T09:48:00,0,0,11.5,39.5
590,2022-10-10T09:49:00,0,0,11.5,39.5
591,2022-10-10T09:50:00,0,0,11.5,39.5
592,2022-10-10T09:51:00,0,0,11.5,39.5
593,2022-10-10T09:52:00,0,0,11.5,39.5
594,2022-10-10T09:53:00,0,0,11.5,39.5
595,2022-10-10T09:54:00,0,0,11.5,39.5
596,2022-10-10T09:55:00,0,0,11.5,39.5
597,2022-10-10T09:56:00,0,0,11.5,39.5
598,2022-10-10T09:57:00,0,0,11.5,39.5
599,2022-10-10T09:58:00,0,0,11.5,39.5
600,2022-10-10T09:59:00,0,0,11.5,39.5
601,2022-10-10T10:00:00,0,0,11.5,39.5
602,2022-10-10T10:01:00,0,0,11.5,39.5
603,2022-10-10T10:02:00,0,0,11.5,39.5
604,2022-10-10T10:03:00,0,0,11.5,39.5
605,2022-10-10T10:04:00,0,0,11.5,39.5
606,2022-10-10T10:05:00,0,0,11.5,39.5
607,2022-10-10T10:06:00,0,0,11.5,39.5
608,2022-10-10T10:07:00,0,0,11.5,39.5
609,2022-10-10T10:08:00,0,0,11.5,39.5
610,2022-10-10T10:09:00,0,0,11.5,39.5
611,2022-10-10T10:10:00,0,0,11.5,39.5
612,2022-10-10T10:11:00,0,0,11.5,39.5
613,2022-10-10T10:12:00,0,0,11.5,39.5
614,2022-10-10T10:13:00,0,0,11.5,39.5
615,2022-10-10T10:14:00,0,0,11.5,39.5
616,2022-10-10T10:15:00,0,0,11.5,39.5
617,2022-10-10T10:16:00,0,0,11.5,39.5
618,2022-10-10T10:17:00,0,0,11.5,39.5
619,2022-10-10T10:18:00,0,0,11.5,39.5
620,2022-10-10T10:19:00,0,0,11.5,39.5
621,2022-10-10T10:20:00,0,0,11.5,39.5
622,2022-10-10T10:21:00,0,0,11.5,39.5
623,2022-10-10T10:22:00,0,0,11.5,39.5
624,2022-10-10T10:23:00,0,0,11.5,39.5
625,2022-10-10T10:24:00,0,0,11.5,39.5
626,2022-10-10T10:25:00,0,0,11.5,39.5
627,2022-10-10T10:26:00,0,0,11.5,39.5
628,2022-10-10T10:27:00,0,0,11.5,39.5
629,2022-10-10T10:28:00,0,0,11.5,39.5
630,2022-10-10T10:29:00,0,0,11.5,39.5
631,2022-10-10T10:30:00,0,0,11.5,39.5
632,2022-10-10T10:31:00,0,0,11.5,39.5
633,2022-10-10T10:32:00,0,0,11.5,39.5
634,2022-10-10T10:33:00,0,0,11.5,39.5
635,2022-10-10T10:34:00,0,0,11.5,39.5
636,2022-10-10T10:35:00,0,0,11.5,39.5
637,2022-10-10T10:36:00,0,0,11.5,39.5
638,2022-10-10T10:37:00,0,0,11.5,39.5
639,2022-10-10T10:38:00,0,0,11.5,39.5
640,2022-10-10T10:39:00,0,0,11.5,39.5
641,2022-10-10T10:40:00,0,0,11.5,39.5
642,2022-10-10T10:41:00,0,0,11.5,39.5
643,2022-10-10T10:42:00,0,0,11.5,39.5
644,2022-10-10T10:43:00,0,0,11.5,39.5
645,2022-10-10T10:44:00,0,0,11.5,39.5
646,2022-10-10T10:45:00,0,0,11.5,39.5
647,2022-10-10T10:46:00,0,0,11.5,39.5
648,2022-10-10T10:47:00,0,0,11.5,39.5
649,2022-10-10T10:48:00,0,0,11.5,39.5